sat.trackr.live / text

‹ back to catalog

YAM-5

NORAD 55076 · 2023-001BV

PAYLOAD ACTIVE UNKNOWN

§ Identity

Operator
Country
US
Launch date
2023-01-03
Launch site
AFETR
Launch vehicle
Mass (kg)
RCS (m²)

External: N2YO · Heavens-Above · Gunter

§ Orbital elements

Epoch: 2026-05-25T03:08:37.911840Z

Period
93.63 min
Inclination
97.3211°
Eccentricity
0.0008966
Mean motion
15.37998877 rev/d
Perigee alt
445.9 km
Apogee alt
458.2 km
Semi-major
6,830.2 km
B*
2.7753e-4
RAAN
208.2323°
Arg perigee
180.7391°
Mean anomaly
179.3842°
Rev number
18,856

§ Raw data

YAM-51 55076U 23001BV  26145.13099435  .00010307  00000+0  27753-3 0  99982 55076  97.3211 208.2323 0008966 180.7391 179.3842 15.37998877188562

JSON: /api/v1/satellites/55076 · /tle

For live sub-satellite position, see the globe view (requires WebGL).

§ Visibility from observer

Set your observer location to see the next 7 days of passes ≥ 10°. The values pass through the URL so the page stays shareable.

No JS? Fill the form by hand. The geolocation button needs JavaScript.

§ Radio — SatNOGS DB

ModeDescriptionDownlinkUplink
FM Service Link 400.100 MHz
FM Telemetry 401.500 MHz

2 transmitters · refreshed weekly from db.satnogs.org